ENT1CY EPWA-GCLP

Flight info

Callsign ENT1CY
Flight time N/A
Altitude 33000
Route SOXER N869 TOMTI DCT ASTEL DCT OKG DCT AMOSA DCT DKB N869 NATOR DCT LUTIX DCT BENOT DCT NEMOS DCT NINTU DCT MEBAK DCT REPSI DCT LERGA DCT MINSO DCT NARAK DCT AGN DCT LATEK N995 PPN DCT MIRPO DCT DGO DCT NEA DCT ZANKO DCT RIDAV DCT ADINO DCT ELVAR DCT SOTEX DCT SUNES DCT BAROK UN873 SAMAR
Aircraft B738/M-SDE2E3FGHIRWXY/LB1

Departure

Time 2026-05-06 07:42
Airport Warsaw Chopin Airport (EPWA)

Arrival

Time N/A
Airport Gran Canaria Airport (GCLP)
Time Latitude Longitude Altitude Speed Heading
2026-05-06 07:10 52.16913 20.97217 338 ft 0 kts 76°
2026-05-06 07:19 52.16913 20.97216 338 ft 0 kts 76°
2026-05-06 07:28 52.16911 20.97206 338 ft 4 kts 76°
2026-05-06 07:28 52.16896 20.97123 332 ft 4 kts 57°
2026-05-06 07:29 52.16879 20.97095 332 ft 4 kts 11°
2026-05-06 07:29 52.16865 20.97095 335 ft 0 kts 332°
2026-05-06 07:31 52.16865 20.97096 335 ft 0 kts 332°
2026-05-06 07:33 52.16868 20.97093 335 ft 1 kts 332°
2026-05-06 07:34 52.16889 20.97074 336 ft 5 kts 330°
2026-05-06 07:34 52.16926 20.97043 335 ft 6 kts 332°
2026-05-06 07:34 52.16968 20.97006 338 ft 7 kts 332°
2026-05-06 07:34 52.17019 20.96962 335 ft 9 kts 330°
2026-05-06 07:35 52.17079 20.96909 335 ft 11 kts 332°
2026-05-06 07:35 52.17146 20.96844 338 ft 12 kts 313°
2026-05-06 07:35 52.17138 20.96715 336 ft 12 kts 247°
2026-05-06 07:35 52.17169 20.96591 338 ft 13 kts 324°
2026-05-06 07:36 52.17253 20.96517 334 ft 14 kts 332°
2026-05-06 07:36 52.17344 20.96437 338 ft 16 kts 332°
2026-05-06 07:36 52.17443 20.96351 335 ft 17 kts 330°
2026-05-06 07:36 52.17541 20.96265 336 ft 16 kts 332°
2026-05-06 07:37 52.17639 20.96180 335 ft 16 kts 332°
2026-05-06 07:37 52.17741 20.96090 337 ft 16 kts 332°
2026-05-06 07:37 52.17822 20.95970 338 ft 16 kts 306°
2026-05-06 07:37 52.17876 20.95840 335 ft 9 kts 301°
2026-05-06 07:38 52.17893 20.95760 337 ft 0 kts 270°
2026-05-06 07:40 52.17893 20.95758 337 ft 1 kts 270°
2026-05-06 07:40 52.17891 20.95735 334 ft 4 kts 259°
2026-05-06 07:40 52.17876 20.95675 333 ft 8 kts 246°
2026-05-06 07:40 52.17838 20.95615 332 ft 8 kts 181°
2026-05-06 07:41 52.17784 20.95651 335 ft 8 kts 155°
2026-05-06 07:41 52.17617 20.95796 335 ft 57 kts 152°
2026-05-06 07:41 52.17087 20.96264 333 ft 115 kts 152°
2026-05-06 07:41 52.16230 20.97006 339 ft 162 kts 154°
2026-05-06 07:42 52.15124 20.97884 583 ft 183 kts 153°
2026-05-06 07:42 52.14013 20.98839 1294 ft 180 kts 154°
2026-05-06 07:42 52.12936 20.99812 2020 ft 178 kts 154°
2026-05-06 07:42 52.11728 21.00497 2230 ft 192 kts 184°
2026-05-06 07:43 52.10486 20.99722 2412 ft 200 kts 214°
2026-05-06 07:43 52.09277 20.98439 2527 ft 215 kts 212°
2026-05-06 07:43 52.08005 20.97099 2881 ft 221 kts 212°
2026-05-06 07:43 52.06696 20.95730 3199 ft 230 kts 211°
2026-05-06 07:44 52.05304 20.94271 3480 ft 243 kts 212°
2026-05-06 07:44 52.04084 20.92348 3937 ft 252 kts 237°
2026-05-06 07:44 52.03501 20.89652 4571 ft 256 kts 257°
2026-05-06 07:44 52.03347 20.86736 5049 ft 263 kts 263°
2026-05-06 07:45 52.03291 20.83741 5529 ft 268 kts 263°
2026-05-06 07:45 52.03250 20.80724 6145 ft 267 kts 263°
2026-05-06 07:45 52.03203 20.77695 6680 ft 269 kts 263°
2026-05-06 07:45 52.03147 20.74661 7239 ft 270 kts 263°
2026-05-06 07:46 52.03084 20.71604 7786 ft 272 kts 263°
2026-05-06 07:46 52.03016 20.68535 8408 ft 272 kts 263°
2026-05-06 07:46 52.02944 20.65451 9010 ft 274 kts 263°
2026-05-06 07:46 52.02870 20.62389 9595 ft 276 kts 263°
2026-05-06 07:47 52.02791 20.59216 10060 ft 283 kts 263°
2026-05-06 07:47 52.02704 20.55919 10179 ft 301 kts 263°
2026-05-06 07:47 52.02682 20.52414 10321 ft 320 kts 268°
2026-05-06 07:47 52.02779 20.48695 10477 ft 338 kts 270°
2026-05-06 07:48 52.02914 20.44815 10701 ft 350 kts 270°
2026-05-06 07:48 52.03055 20.40833 11118 ft 356 kts 270°
2026-05-06 07:48 52.03191 20.36862 11635 ft 358 kts 270°
2026-05-06 07:48 52.03320 20.32818 12221 ft 359 kts 270°
2026-05-06 07:49 52.03443 20.28750 12761 ft 362 kts 269°
2026-05-06 07:49 52.03562 20.24652 13315 ft 365 kts 269°
2026-05-06 07:49 52.03680 20.20467 13867 ft 367 kts 269°
2026-05-06 07:49 52.03794 20.16363 14382 ft 370 kts 269°
2026-05-06 07:50 52.03908 20.12176 14915 ft 372 kts 269°
2026-05-06 07:50 52.04022 20.07959 15431 ft 375 kts 269°
2026-05-06 07:50 52.04135 20.03709 15967 ft 378 kts 269°
2026-05-06 07:50 52.04247 19.99439 16481 ft 380 kts 269°
2026-05-06 07:51 52.04345 19.95128 16982 ft 383 kts 267°
2026-05-06 07:51 52.03950 19.90885 17450 ft 381 kts 249°
2026-05-06 07:51 52.03032 19.86853 17991 ft 382 kts 248°
2026-05-06 07:51 52.02116 19.82787 18417 ft 385 kts 248°
2026-05-06 07:52 52.01209 19.78683 18851 ft 387 kts 249°
2026-05-06 07:52 52.00308 19.74556 19296 ft 389 kts 249°
2026-05-06 07:52 51.99407 19.70410 19735 ft 391 kts 249°
2026-05-06 07:52 51.98502 19.66237 20154 ft 393 kts 249°
2026-05-06 07:53 51.97590 19.62041 20576 ft 395 kts 249°
2026-05-06 07:53 51.96672 19.57834 21003 ft 397 kts 249°
2026-05-06 07:53 51.95744 19.53607 21404 ft 399 kts 249°
2026-05-06 07:53 51.94807 19.49363 21803 ft 401 kts 249°
2026-05-06 07:54 51.93863 19.45097 22190 ft 403 kts 249°
2026-05-06 07:54 51.92914 19.40817 22567 ft 405 kts 249°
2026-05-06 07:54 51.91957 19.36505 22953 ft 407 kts 249°
2026-05-06 07:54 51.90997 19.32188 23321 ft 409 kts 249°
2026-05-06 07:55 51.90028 19.27836 23614 ft 411 kts 249°
2026-05-06 07:55 51.89068 19.23527 23918 ft 413 kts 248°
2026-05-06 07:55 51.88078 19.19097 24225 ft 415 kts 248°
2026-05-06 07:55 51.87091 19.14692 24537 ft 416 kts 248°
2026-05-06 07:56 51.86119 19.10342 24824 ft 418 kts 248°
2026-05-06 07:56 51.85150 19.05908 25103 ft 420 kts 249°
2026-05-06 07:56 51.84182 19.01441 25353 ft 422 kts 249°
2026-05-06 07:56 51.83208 18.96951 25598 ft 424 kts 248°
2026-05-06 07:57 51.82225 18.92443 25862 ft 426 kts 248°
2026-05-06 07:57 51.81233 18.87916 26162 ft 427 kts 248°
2026-05-06 07:57 51.80239 18.83402 26448 ft 428 kts 248°
2026-05-06 07:57 51.79235 18.78859 26685 ft 430 kts 248°
2026-05-06 07:58 51.78227 18.74307 26934 ft 432 kts 248°
2026-05-06 07:58 51.77213 18.69738 27194 ft 433 kts 248°
2026-05-06 07:58 51.76195 18.65155 27509 ft 432 kts 248°
2026-05-06 07:58 51.75189 18.60633 28149 ft 424 kts 248°
2026-05-06 07:59 51.74201 18.56193 28764 ft 418 kts 248°
2026-05-06 07:59 51.73215 18.51780 29031 ft 419 kts 248°
2026-05-06 07:59 51.72220 18.47338 29189 ft 422 kts 247°
2026-05-06 07:59 51.71218 18.42881 29453 ft 423 kts 247°
2026-05-06 08:00 51.70218 18.38436 29859 ft 420 kts 247°
2026-05-06 08:00 51.69226 18.34033 30205 ft 417 kts 247°
2026-05-06 08:00 51.68234 18.29638 30430 ft 418 kts 247°
2026-05-06 08:00 51.67237 18.25232 30613 ft 419 kts 247°
2026-05-06 08:01 51.66236 18.20822 30839 ft 419 kts 247°
2026-05-06 08:01 51.65235 18.16418 31130 ft 418 kts 246°
2026-05-06 08:01 51.64240 18.12042 31495 ft 415 kts 246°
2026-05-06 08:01 51.63247 18.07688 31745 ft 414 kts 246°
2026-05-06 08:02 51.62249 18.03324 31874 ft 416 kts 246°
2026-05-06 08:02 51.61247 17.98953 32082 ft 416 kts 246°
2026-05-06 08:02 51.60252 17.94610 32476 ft 412 kts 246°
2026-05-06 08:02 51.59259 17.90292 32664 ft 412 kts 246°
2026-05-06 08:03 51.58257 17.85960 32775 ft 414 kts 246°
2026-05-06 08:03 51.57242 17.81611 32934 ft 415 kts 245°
2026-05-06 08:03 51.56226 17.77271 33126 ft 415 kts 245°
2026-05-06 08:03 51.55208 17.72931 33324 ft 415 kts 245°
2026-05-06 08:04 51.54201 17.68643 33483 ft 416 kts 245°
2026-05-06 08:04 51.53181 17.64309 33658 ft 416 kts 245°
2026-05-06 08:04 51.51126 17.55591 33775 ft 419 kts 245°
2026-05-06 08:05 51.49065 17.46871 33756 ft 416 kts 245°
2026-05-06 08:05 51.47015 17.38242 33752 ft 412 kts 245°
2026-05-06 08:06 51.44988 17.29691 33748 ft 409 kts 245°
2026-05-06 08:06 51.42977 17.21207 33756 ft 406 kts 245°
2026-05-06 08:07 51.40968 17.12766 33748 ft 404 kts 245°
2026-05-06 08:07 51.38959 17.04360 33755 ft 404 kts 245°
2026-05-06 08:08 51.36944 16.95965 33791 ft 405 kts 245°
2026-05-06 08:08 51.34910 16.87525 33773 ft 407 kts 245°
2026-05-06 08:09 51.32862 16.79056 33757 ft 409 kts 245°
2026-05-06 08:09 51.30797 16.70552 33768 ft 411 kts 245°
2026-05-06 08:10 51.28726 16.62048 33753 ft 411 kts 245°
2026-05-06 08:10 51.26653 16.53569 33753 ft 409 kts 245°
2026-05-06 08:11 51.24582 16.45137 33747 ft 407 kts 245°
2026-05-06 08:11 51.22519 16.36765 33781 ft 405 kts 245°
2026-05-06 08:12 51.20469 16.28482 33766 ft 403 kts 245°
2026-05-06 08:12 51.18410 16.20189 33757 ft 402 kts 245°
2026-05-06 08:13 51.16349 16.11924 33747 ft 400 kts 245°
2026-05-06 08:13 51.14294 16.03712 33757 ft 399 kts 245°
2026-05-06 08:14 51.12233 15.95505 33755 ft 399 kts 245°
2026-05-06 08:14 51.10171 15.87321 33761 ft 397 kts 245°
2026-05-06 08:15 51.08110 15.79175 33779 ft 397 kts 245°
2026-05-06 08:15 51.06039 15.71018 33772 ft 398 kts 245°
2026-05-06 08:16 51.03962 15.62859 33773 ft 399 kts 245°
2026-05-06 08:16 51.01873 15.54691 33775 ft 400 kts 245°
2026-05-06 08:17 50.99777 15.46563 33762 ft 400 kts 245°
2026-05-06 08:17 50.98005 15.39720 33770 ft 401 kts 244°
2026-05-06 08:18 50.95528 15.30190 33773 ft 402 kts 245°
2026-05-06 08:18 50.93967 15.23238 33815 ft 403 kts 249°
2026-05-06 08:19 50.92285 15.14735 33785 ft 405 kts 250°
2026-05-06 08:19 50.90576 15.06229 33780 ft 405 kts 249°
2026-05-06 08:20 50.88833 14.97746 33781 ft 405 kts 249°
2026-05-06 08:20 50.87083 14.89290 33779 ft 404 kts 249°
2026-05-06 08:21 50.84992 14.81107 33786 ft 400 kts 242°
2026-05-06 08:21 50.82506 14.73247 33792 ft 398 kts 241°
2026-05-06 08:22 50.80020 14.65431 33782 ft 399 kts 242°
2026-05-06 08:22 50.77548 14.57598 33781 ft 398 kts 242°